[[{"header":{"parameterUnit":"m.s-1","parameterCategory":1,"la1":30.2991,"la2":30.254,"lo1":-89.0895,"lo2":-89.0444,"dy":0.0017,"dx":0.0017,"nx":28,"ny":28,"refTime":"2023-10-29T09:00:00:Z","depth":0,"parameterNumber":2,"parameterNumberName":"U-component_of_WINDS"},"data":[0,0,0,0,0,0,0,0,0,0,0,0,0,0,0,0,0,0,0,0,0,0,0,0,0,0,0,0,0,0,0,0,0,0,0,0,0,0,0,0,0,0,0,0,0,0,0,0,0,0,0,0,0,0,0,0,0,0,0.8149,0.8149,0,0.8099,0.8099,0.8098,0.8075,0.8075,0.8075,0.8075,0.8021,0.802,0.8018,0,0,0,0,0,0,0,0,0,0,0,0,0,0.8223,0.8222,0.8149,0.8149,0.8148,0.8099,0.8099,0.8098,0.8075,0.8075,0.8075,0.8075,0.8022,0.802,0.8018,0,0,0,0,0,0,0,0,0,0,0,0,0,0.8184,0.8222,0.8149,0.8131,0.8129,0.8099,0.8099,0.8098,0.8075,0.8075,0.8075,0.8075,0.8022,0.802,0.8018,0.8002,0,0,0.8011,0.801,0,0,0,0,0,0,0,0,0.8186,0.8181,0.8134,0.8132,0.813,0.8094,0.8105,0.8066,0.8075,0.8095,0.8075,0.8075,0.8045,0.8041,0.8031,0.8,0.7997,0.8011,0.8009,0.8008,0.8008,0,0,0,0,0,0,0,0.8189,0.8183,0.8129,0.8134,0.8131,0.8125,0.8119,0.8097,0.807,0.8094,0.8092,0.8086,0.8044,0.8033,0.803,0.7997,0.8011,0.8009,0.8007,0.8007,0.7952,0.7952,0,0,0,0,0,0,0.8195,0.8186,0.8131,0.8128,0.8159,0.8123,0.8117,0.8105,0.807,0.8065,0.8086,0.8085,0.8037,0.8032,0.8028,0.8008,0.8008,0.8006,0.8005,0.7952,0.7952,0.7952,0,0,0,0,0,0,0.8197,0.819,0.8133,0.8156,0.8149,0.8122,0.8109,0.8104,0.8094,0.8065,0.806,0.8081,0.8037,0.8031,0.8009,0.8006,0.8005,0.8003,0.7952,0.7952,0.7952,0.7968,0,0,0,0,0,0,0.8199,0.8191,0.8185,0.8156,0.8147,0.8116,0.8108,0.8103,0.809,0.8089,0.8058,0.8054,0.8037,0.8013,0.8007,0.8003,0.8002,0.7952,0.7952,0.7952,0.7968,0.7969,0.797,0,0,0,0,0,0.8202,0.8191,0.8185,0.8179,0.814,0.8116,0.811,0.8092,0.809,0.8084,0.8066,0.8054,0.8008,0.8011,0.8004,0.7999,0.7952,0.7952,0.7952,0.7968,0.7969,0.797,0,0,0,0,0,0,0.8218,0.8187,0.818,0.816,0.8141,0.8112,0.8103,0.8094,0.8074,0.8073,0.805,0.8044,0.8024,0.801,0.8014,0.7983,0.7979,0.7977,0.7993,0.7994,0.7995,0.7998,0.8,0,0,0,0,0,0.822,0.8204,0.8177,0.8162,0.8153,0.813,0.8119,0.8107,0.8086,0.8077,0.8057,0.8037,0.8018,0.8005,0.7986,0.7966,0.796,0.796,0.7961,0.7961,0.796,0.795,0.7949,0.7951,0.7951,0.7951,0,0,0.8222,0.8203,0.8194,0.8165,0.8149,0.8132,0.8123,0.8106,0.8093,0.8074,0.8053,0.8038,0.8014,0.7994,0.7984,0.7981,0.7958,0.7961,0.7962,0.796,0.7949,0.7949,0.7949,0.7951,0.7951,0.7951,0,0,0.8219,0.8203,0.8189,0.8174,0.815,0.8135,0.8132,0.8105,0.8095,0.8074,0.806,0.8044,0.8011,0.7995,0.7982,0.7975,0.7964,0.7969,0.7973,0.7963,0.7963,0.7963,0.7961,0.796,0.7968,0.7968,0.7968,0,0.8224,0.82,0.8182,0.8167,0.8154,0.8138,0.8124,0.8109,0.808,0.8072,0.807,0.8029,0.8011,0.7988,0.7987,0.7977,0.7972,0.7972,0.7965,0.7964,0.7964,0.7961,0.7961,0.7969,0.7969,0.7969,0.7969,0,0.8208,0.8192,0.8183,0.8157,0.8144,0.8129,0.8109,0.8098,0.8087,0.8073,0.8052,0.8031,0.8008,0.8001,0.799,0.7976,0.7975,0.7969,0.7964,0.7965,0.7962,0.7961,0.797,0.797,0.797,0.797,0,0,0.8212,0.8178,0.8175,0.8164,0.8138,0.8124,0.8109,0.8088,0.8079,0.806,0.8046,0.802,0.8015,0.8001,0.7988,0.7979,0.7976,0.7974,0.7973,0.7975,0.796,0.7965,0.7964,0.7969,0.7969,0.7969,0.7962,0,0.8204,0.8177,0.8162,0.814,0.8125,0.8111,0.8097,0.808,0.8067,0.8051,0.8036,0.8018,0.8012,0.8004,0.7995,0.7978,0.7972,0.7978,0.7956,0.7955,0.7962,0.7962,0.7967,0.7961,0.7961,0.7961,0.7961,0,0.8191,0.8175,0.8152,0.813,0.8122,0.8111,0.8091,0.8077,0.8057,0.8048,0.8033,0.8021,0.8004,0.8002,0.7979,0.7983,0.7974,0.7964,0.7963,0.796,0.7957,0.7959,0.7959,0.7958,0.7959,0.7959,0.7959,0,0.8196,0.8168,0.8151,0.8142,0.8115,0.8107,0.8096,0.8076,0.8065,0.8047,0.804,0.802,0.8009,0.7994,0.7977,0.7977,0.7956,0.7952,0.7948,0.7948,0.7943,0.7943,0.7942,0.7937,0.7937,0.7937,0.7937,0,0.8189,0.8176,0.8153,0.8143,0.8128,0.8111,0.8097,0.8084,0.8067,0.8054,0.804,0.8028,0.8006,0.7992,0.7978,0.7961,0.7957,0.7949,0.7945,0.7949,0.7951,0.7942,0.7942,0.7937,0.7937,0.7937,0.7937,0,0.8192,0.8176,0.8157,0.8134,0.8128,0.8118,0.8098,0.8087,0.8074,0.8058,0.8053,0.8032,0.8014,0.7996,0.7971,0.7962,0.7946,0.7941,0.7953,0.7951,0.7948,0.7948,0.794,0.7938,0.7936,0.7936,0.7936,0,0.8188,0.8178,0.8154,0.8145,0.8134,0.8119,0.8108,0.8092,0.8081,0.8059,0.8051,0.8032,0.8016,0.7989,0.7971,0.7952,0.7947,0.7945,0.7944,0.7949,0.7947,0.7947,0.7947,0.7946,0.7946,0.7946,0.7946,0,0.8183,0.8176,0.8161,0.8144,0.8132,0.8117,0.8102,0.8095,0.8076,0.8064,0.8046,0.8034,0.801,0.7992,0.7972,0.7959,0.7949,0.7947,0.7945,0.7949,0.7956,0.7952,0.7954,0.7947,0.7947,0.7947,0.7947,0.7947,0.8182,0.8173,0.8155,0.814,0.8127,0.8114,0.8103,0.809,0.8075,0.8055,0.8046,0.8028,0.801,0.7982,0.797,0.7956,0.7953,0.795,0.7949,0.7949,0.795,0.7959,0.7952,0.7952,0.7952,0.7952,0.7952,0,0.8176,0.8165,0.8151,0.8131,0.8119,0.8112,0.8096,0.8086,0.8071,0.8055,0.8041,0.8021,0.8004,0.7986,0.7967,0.796,0.7955,0.7955,0.7955,0.7953,0.7953,0.7957,0.796,0.796,0.796,0.796,0.796,0.796,0.8172,0.8156,0.8148,0.8126,0.8115,0.8098,0.809,0.8077,0.8065,0.8044,0.803,0.8019,0.8003,0.7983,0.7968,0.7963,0.7956,0.7958,0.7952,0.7953,0.7952,0.7952,0.7955,0.7957,0.7957,0.7953,0.7953,0.7952]},{"header":{"parameterUnit":"m.s-1","parameterCategory":1,"la1":30.2991,"la2":30.254,"lo1":-89.0895,"lo2":-89.0444,"dy":0.0017,"dx":0.0017,"nx":28,"ny":28,"refTime":"2023-10-29T09:00:00:Z","depth":0,"parameterNumber":3,"parameterNumberName":"V-component_of_WINDS"},"data":[0,0,0,0,0,0,0,0,0,0,0,0,0,0,0,0,0,0,0,0,0,0,0,0,0,0,0,0,0,0,0,0,0,0,0,0,0,0,0,0,0,0,0,0,0,0,0,0,0,0,0,0,0,0,0,0,0,0,-8.1116,-8.1117,0,-8.1227,-8.1228,-8.1229,-8.1161,-8.1157,-8.1154,-8.1151,-8.1256,-8.1262,-8.1268,0,0,0,0,0,0,0,0,0,0,0,0,0,-8.0839,-8.0845,-8.1116,-8.1118,-8.1119,-8.1226,-8.1228,-8.1229,-8.1161,-8.1157,-8.1153,-8.115,-8.1255,-8.1261,-8.1268,0,0,0,0,0,0,0,0,0,0,0,0,0,-8.0955,-8.0847,-8.1116,-8.1098,-8.1098,-8.1226,-8.1228,-8.123,-8.1162,-8.1157,-8.1152,-8.1148,-8.1252,-8.1261,-8.1269,-8.1419,0,0,-8.1296,-8.13,0,0,0,0,0,0,0,0,-8.0949,-8.0966,-8.1099,-8.11,-8.1099,-8.1175,-8.1169,-8.1293,-8.1163,-8.1137,-8.1151,-8.1146,-8.1233,-8.1243,-8.1274,-8.1424,-8.1429,-8.1297,-8.1302,-8.1306,-8.1308,0,0,0,0,0,0,0,-8.0941,-8.096,-8.116,-8.1101,-8.1101,-8.1082,-8.1093,-8.1192,-8.121,-8.1139,-8.1135,-8.1149,-8.1232,-8.1266,-8.1276,-8.143,-8.1296,-8.1304,-8.1309,-8.1313,-8.1709,-8.1714,0,0,0,0,0,0,-8.0935,-8.0954,-8.1156,-8.1163,-8.1011,-8.1091,-8.1104,-8.1155,-8.1209,-8.1213,-8.1153,-8.1145,-8.1253,-8.1266,-8.1279,-8.1458,-8.1305,-8.1314,-8.1319,-8.1704,-8.171,-8.1716,0,0,0,0,0,0,-8.093,-8.0954,-8.1152,-8.1058,-8.1081,-8.1101,-8.116,-8.116,-8.1194,-8.122,-8.1222,-8.1185,-8.125,-8.1267,-8.1385,-8.1461,-8.1318,-8.1325,-8.1698,-8.1706,-8.1713,-8.1818,0,0,0,0,0,0,-8.0922,-8.0952,-8.1011,-8.1059,-8.1087,-8.1259,-8.1165,-8.1166,-8.121,-8.1201,-8.125,-8.1253,-8.1247,-8.1373,-8.1394,-8.147,-8.1332,-8.1691,-8.1701,-8.1711,-8.1808,-8.1829,-8.1847,0,0,0,0,0,-8.0912,-8.1034,-8.1015,-8.1039,-8.1161,-8.1263,-8.1278,-8.1271,-8.1217,-8.1275,-8.1291,-8.1252,-8.145,-8.1386,-8.1409,-8.1489,-8.1686,-8.1698,-8.171,-8.1799,-8.1825,-8.1846,0,0,0,0,0,0,-8.0991,-8.104,-8.1019,-8.116,-8.1209,-8.1251,-8.1324,-8.1298,-8.136,-8.1349,-8.1335,-8.1347,-8.1471,-8.1491,-8.1419,-8.1637,-8.1559,-8.1576,-8.1619,-8.1643,-8.1662,-8.1654,-8.1339,0,0,0,0,0,-8.1026,-8.1107,-8.1144,-8.1266,-8.1291,-8.1304,-8.1348,-8.1339,-8.1387,-8.1406,-8.1431,-8.1477,-8.155,-8.1598,-8.1666,-8.1811,-8.182,-8.1877,-8.1897,-8.1912,-8.1927,-8.2006,-8.2031,-8.1755,-8.1755,-8.1755,0,0,-8.1096,-8.1133,-8.1185,-8.1283,-8.1319,-8.1401,-8.1321,-8.1412,-8.1472,-8.1419,-8.1533,-8.1554,-8.1604,-8.1737,-8.1796,-8.1758,-8.2006,-8.1928,-8.194,-8.1946,-8.2021,-8.2047,-8.207,-8.1763,-8.1762,-8.1761,0,0,-8.1267,-8.1304,-8.141,-8.1449,-8.1506,-8.1514,-8.1539,-8.1587,-8.1599,-8.1715,-8.1676,-8.1747,-8.1872,-8.191,-8.1945,-8.2133,-8.2099,-8.2156,-8.2256,-8.2332,-8.2354,-8.2373,-8.244,-8.2464,-8.217,-8.2171,-8.2171,0,-8.1347,-8.1473,-8.1466,-8.1561,-8.1605,-8.1564,-8.167,-8.1706,-8.1781,-8.1812,-8.1768,-8.1926,-8.1956,-8.2098,-8.2144,-8.2174,-8.2202,-8.215,-8.2352,-8.2371,-8.2389,-8.2452,-8.2478,-8.2177,-8.2176,-8.2176,-8.2175,0,-8.1568,-8.1656,-8.1734,-8.1812,-8.1864,-8.1964,-8.197,-8.2024,-8.2011,-8.2023,-8.214,-8.2176,-8.2251,-8.2284,-8.227,-8.2424,-8.2398,-8.2354,-8.2275,-8.2422,-8.2481,-8.2506,-8.2187,-8.2184,-8.2182,-8.2181,0,0,-8.179,-8.1865,-8.1894,-8.1929,-8.199,-8.2056,-8.2154,-8.223,-8.2276,-8.2329,-8.241,-8.2518,-8.2478,-8.2518,-8.2509,-8.2576,-8.2723,-8.2523,-8.2524,-8.2559,-8.2894,-8.2926,-8.2955,-8.2701,-8.2706,-8.2709,-8.2889,0,-8.1965,-8.2139,-8.2137,-8.2296,-8.2377,-8.234,-8.2424,-8.2469,-8.2484,-8.2552,-8.2566,-8.2644,-8.2585,-8.2609,-8.2674,-8.2691,-8.279,-8.2678,-8.2773,-8.2777,-8.2762,-8.2986,-8.3021,-8.3189,-8.2912,-8.2916,-8.2919,0,-8.2192,-8.2257,-8.2426,-8.2476,-8.251,-8.2587,-8.2657,-8.2724,-8.2774,-8.2779,-8.2826,-8.2806,-8.2903,-8.2823,-8.2955,-8.288,-8.2918,-8.2933,-8.2939,-8.2947,-8.2857,-8.2999,-8.3242,-8.3267,-8.2956,-8.2953,-8.295,0,-8.2337,-8.2466,-8.2584,-8.2615,-8.2677,-8.2732,-8.276,-8.2806,-8.2852,-8.2913,-8.2942,-8.3013,-8.3051,-8.3105,-8.3104,-8.3045,-8.3238,-8.3157,-8.3244,-8.3244,-8.3285,-8.3282,-8.3537,-8.3311,-8.3311,-8.331,-8.331,0,-8.2533,-8.2637,-8.2651,-8.2723,-8.2839,-8.2835,-8.2949,-8.297,-8.3012,-8.3087,-8.3058,-8.3127,-8.3122,-8.3193,-8.3192,-8.3302,-8.3319,-8.3325,-8.3323,-8.3328,-8.3327,-8.3352,-8.334,-8.3317,-8.3316,-8.3314,-8.3313,0,-8.2714,-8.2727,-8.2853,-8.2903,-8.2918,-8.3001,-8.3042,-8.311,-8.3122,-8.3217,-8.3239,-8.3257,-8.3339,-8.3344,-8.3436,-8.3436,-8.3569,-8.3555,-8.3554,-8.3551,-8.3637,-8.3629,-8.3916,-8.3954,-8.3704,-8.3707,-8.3709,0,-8.2837,-8.2917,-8.2977,-8.3026,-8.3058,-8.3138,-8.3186,-8.3185,-8.3236,-8.33,-8.336,-8.344,-8.3503,-8.3634,-8.3654,-8.3725,-8.3712,-8.3808,-8.3722,-8.3724,-8.3713,-8.3708,-8.3716,-8.3824,-8.3827,-8.3829,-8.3831,0,-8.3055,-8.3058,-8.3131,-8.3207,-8.3266,-8.3325,-8.3379,-8.342,-8.3425,-8.3484,-8.3569,-8.3618,-8.3715,-8.3793,-8.3863,-8.3888,-8.3861,-8.3859,-8.3882,-8.3887,-8.3883,-8.3886,-8.3599,-8.3852,-8.385,-8.3848,-8.3847,-8.3846,-8.321,-8.328,-8.3334,-8.3416,-8.3458,-8.351,-8.3577,-8.3599,-8.3671,-8.3751,-8.3746,-8.3839,-8.3887,-8.3979,-8.401,-8.4082,-8.4048,-8.4083,-8.4091,-8.41,-8.4109,-8.3872,-8.4094,-8.4093,-8.4093,-8.4092,-8.4092,0,-8.3426,-8.346,-8.3536,-8.3615,-8.3679,-8.3651,-8.371,-8.3765,-8.3849,-8.3897,-8.3962,-8.4059,-8.4135,-8.4163,-8.4237,-8.4289,-8.4278,-8.4308,-8.4304,-8.431,-8.4134,-8.4107,-8.4316,-8.4316,-8.4316,-8.4316,-8.4316,-8.4316,-8.3546,-8.3664,-8.3674,-8.3811,-8.3842,-8.3937,-8.3973,-8.402,-8.406,-8.4171,-8.4236,-8.4254,-8.4294,-8.4371,-8.444,-8.4445,-8.4474,-8.451,-8.451,-8.4345,-8.4322,-8.4301,-8.4275,-8.4516,-8.4516,-8.468,-8.4681,-8.4682]}]]